This is the latest recevied weather packets stored in our database for station/object N4CRH-13. If no packets are shown the sender has not sent any weather packets the latest 10 day(s).
| Time | Temp. | Humidity | Pressure | Rain* | Wind** | Luminosity | Snow |
|---|---|---|---|---|---|---|---|
| 1777705140 | 0.56° C | 66% | 1300.5 hPa | 0 mm | - | 0 W/m² | - |
| 1777704838 | 0.56° C | 64% | 1300.4 hPa | 0 mm | - | 0 W/m² | - |
| 1777704536 | 0° C | 61% | 1300.7 hPa | 0 mm | - | 0 W/m² | - |
| 1777704234 | 0° C | 60% | 1300.4 hPa | 0 mm | - | 0 W/m² | - |
| 1777703930 | -0.56° C | 64% | 1300.7 hPa | 0 mm | - | 0 W/m² | - |
| 1777703628 | -0.56° C | 71% | 1300.5 hPa | 0 mm | - | 0 W/m² | - |
| 1777703325 | 0° C | 70% | 1300.4 hPa | 0 mm | - | 0 W/m² | - |
| 1777703023 | 0° C | 66% | 1300.5 hPa | 0 mm | - | 0 W/m² | - |
| 1777702722 | -0.56° C | 69% | 1300.5 hPa | 0 mm | - | 0 W/m² | - |
| 1777702419 | 0° C | 69% | 1300.5 hPa | 0 mm | - | 0 W/m² | - |
| 1777702115 | -0.56° C | 67% | 1300.5 hPa | 0 mm | - | 0 W/m² | - |
| 1777701810 | -0.56° C | 71% | 1300.3 hPa | 0 mm | - | 0 W/m² | - |
| 1777701508 | -0.56° C | 72% | 1300.5 hPa | 0 mm | - | 0 W/m² | - |
| 1777701206 | -0.56° C | 69% | 1300.7 hPa | 0 mm | - | 0 W/m² | - |
| 1777700905 | 0° C | 71% | 1300.4 hPa | 0 mm | - | 0 W/m² | - |
| 1777700602 | -0.56° C | 65% | 1300.3 hPa | 0 mm | - | 0 W/m² | - |
| 1777700299 | 0° C | 70% | 1300.4 hPa | 0 mm | - | 0 W/m² | - |
| 1777699996 | -0.56° C | 64% | 1300.3 hPa | 0 mm | - | 0 W/m² | - |
| 1777699694 | 0° C | 68% | 1300.2 hPa | 0 mm | - | 0 W/m² | - |
| 1777699392 | -0.56° C | 66% | 1300.3 hPa | 0 mm | - | 0 W/m² | - |
| 1777699089 | -0.56° C | 68% | 1300.2 hPa | 0 mm | - | 0 W/m² | - |
| 1777698788 | -0.56° C | 62% | 1300.1 hPa | 0 mm | - | 0 W/m² | - |
| 1777698484 | 0° C | 66% | 1300.2 hPa | 0 mm | - | 0 W/m² | - |
| 1777698180 | 0° C | 63% | 1300.1 hPa | 0 mm | - | 0 W/m² | - |
| 1777697878 | 0° C | 69% | 1300.3 hPa | 0 mm | - | 0 W/m² | - |
* Rain latest hour (hover to see other rain measurements)
** Current wind speed in m/s (hover to see current wind gust speed)